Watonga, OK

10:02 PM CST on January 21, 2017 (GMT -0600)
Watonga

Weather History for KJWG - April, 2014

Change the Weather History Date:

Sunday, April 27, 2014

  Actual Average Record
Temperature  
Mean Temperature 70 °F -  
Max Temperature 80 °F 74 °F 90 °F (1959)
Min Temperature 60 °F 50 °F 33 °F (1967)
Cooling Degree Days 6    
Growing Degree Days 20 (Base 50)    
Moisture  
Dew Point 48 °F    
Average Humidity 47    
Maximum Humidity 87    
Minimum Humidity 22    
Precipitation  
Precipitation 0.00 in - - ()
Sea Level Pressure  
Sea Level Pressure 29.40 in    
Wind  
Wind Speed 20 mph (SSW)    
Max Wind Speed 34 mph    
Max Gust Speed 47 mph    
Visibility 8 miles    
Events      
Averages and records for this station are not official NWS values.
T = Trace of Precipitation, MM = Missing Value Source: NWS Daily Summary

Daily Weather History Graph

Daily Weather History Graph

Search for Another Location

Airport or City:

Trip Planner

Search our weather history database for the weather conditions in past years. The results will help you decide how hot, cold, wet, or windy it might be!

Date:

Astronomy

Apr. 27, 2014 Rise Set
Actual Time 6:45 AM CDT 8:17 PM CDT
Civil Twilight 6:18 AM CDT 8:44 PM CDT
Nautical Twilight 5:46 AM CDT 9:17 PM CDT
Astronomical Twilight 5:11 AM CDT 9:51 PM CDT
Moon 5:43 AM CDT (4/27) 6:55 PM CDT (4/27)
Length of Visible Light 14h 25m
Length of Day
13h 31m
Waning Crescent, 3% of the Moon is Illuminated
Apr 27
Waning Crescent
Apr 29
New
May 6
First Quarter
May 14
Full
May 21
Last Quarter

Hourly Weather History & Observations

Time (CDT) Temp. Dew Point Humidity Pressure Visibility Wind Dir Wind Speed Gust Speed Precip Events Conditions
12:15 AM 71.2 °F 65.3 °F 81% 29.48 in 10.0 mi SSE 23.0 mph 35.7 mph N/A   Clear
12:35 AM 71.2 °F 65.3 °F 81% 29.46 in 10.0 mi SSE 23.0 mph 36.8 mph N/A   Clear
1:15 AM 70.9 °F 65.8 °F 84% 29.49 in 10.0 mi South 19.6 mph 35.7 mph N/A   Scattered Clouds
1:35 AM 70.7 °F 66.2 °F 86% 29.49 in 10.0 mi South 19.6 mph 28.8 mph N/A   Scattered Clouds
1:55 AM 71.2 °F 66.6 °F 85% 29.49 in 10.0 mi South 20.7 mph 34.5 mph N/A   Mostly Cloudy
2:15 AM 71.6 °F 66.9 °F 85% 29.47 in 10.0 mi South 18.4 mph 31.1 mph N/A   Overcast
2:35 AM 71.6 °F 67.1 °F 86% 29.46 in 10.0 mi South 20.7 mph 27.6 mph N/A   Overcast
2:55 AM 71.8 °F 67.3 °F 86% 29.45 in 10.0 mi South 21.9 mph 29.9 mph N/A   Mostly Cloudy
3:15 AM 71.6 °F 67.3 °F 86% 29.45 in 10.0 mi SSE 18.4 mph 29.9 mph N/A   Mostly Cloudy
3:35 AM 71.6 °F 67.5 °F 87% 29.44 in 10.0 mi SSE 18.4 mph 28.8 mph N/A   Scattered Clouds
3:55 AM 71.6 °F 67.5 °F 87% 29.44 in 10.0 mi SSE 19.6 mph 28.8 mph N/A   Scattered Clouds
4:15 AM 71.8 °F 67.6 °F 87% 29.44 in 10.0 mi SSE 16.1 mph 23.0 mph N/A   Mostly Cloudy
4:35 AM 71.8 °F 67.5 °F 86% 29.44 in 10.0 mi South 19.6 mph 29.9 mph N/A   Overcast
4:55 AM 72.5 °F 67.5 °F 84% 29.44 in 10.0 mi South 20.7 mph 31.1 mph N/A   Overcast
5:15 AM 72.5 °F 67.6 °F 85% 29.44 in 10.0 mi South 16.1 mph 25.3 mph N/A   Overcast
5:35 AM 72.7 °F 67.5 °F 84% 29.44 in 10.0 mi South 16.1 mph 27.6 mph N/A   Mostly Cloudy
5:55 AM 72.1 °F 67.3 °F 85% 29.43 in 10.0 mi SSW 15.0 mph 23.0 mph N/A   Mostly Cloudy
6:15 AM 71.8 °F 66.7 °F 84% 29.42 in 10.0 mi SSW 19.6 mph 27.6 mph N/A   Scattered Clouds
6:35 AM 70.9 °F 66.2 °F 85% 29.41 in 10.0 mi SSW 15.0 mph 31.1 mph N/A   Mostly Cloudy
6:55 AM 70.2 °F 65.5 °F 85% 29.38 in 10.0 mi South 5.8 mph - N/A   Light Drizzle
7:15 AM 69.1 °F 64.2 °F 84% 29.41 in 10.0 mi SW 10.4 mph - N/A   Scattered Clouds
7:35 AM 69.1 °F 47.5 °F 46% 29.45 in 10.0 mi SW 9.2 mph 17.3 mph N/A   Clear
7:55 AM 67.3 °F 41.4 °F 39% 29.48 in 10.0 mi SW 8.1 mph 19.6 mph N/A   Clear
8:15 AM 65.7 °F 37.2 °F 35% 29.47 in 10.0 mi WSW 12.7 mph 19.6 mph N/A   Clear
8:35 AM 66.4 °F 38.8 °F 36% 29.46 in 10.0 mi SW 11.5 mph 17.3 mph N/A   Clear
9:15 AM 67.1 °F 35.2 °F 31% 29.45 in 10.0 mi SW 17.3 mph 25.3 mph N/A   Clear
9:35 AM 67.6 °F 34.3 °F 29% 29.44 in 10.0 mi SW 18.4 mph 24.2 mph N/A   Clear
9:55 AM 68.5 °F 35.6 °F 30% 29.43 in 10.0 mi SSW 16.1 mph - N/A   Clear
10:15 AM 69.3 °F 36.3 °F 30% 29.41 in 10.0 mi SSW 15.0 mph 24.2 mph N/A   Clear
10:35 AM 70.7 °F 35.2 °F 27% 29.42 in 10.0 mi SSW 20.7 mph 25.3 mph N/A   Clear
11:15 AM 71.8 °F 36.3 °F 27% 29.41 in 10.0 mi SW 26.5 mph 33.4 mph N/A   Clear
11:35 AM 72.1 °F 36.9 °F 28% 29.40 in 10.0 mi SSW 21.9 mph 33.4 mph N/A   Clear
11:55 AM 73.0 °F 38.1 °F 28% 29.38 in 10.0 mi SSW 23.0 mph 41.4 mph N/A   Clear
12:15 PM 74.1 °F 39.7 °F 29% 29.38 in 10.0 mi SSW 21.9 mph 38.0 mph N/A   Clear
12:35 PM 75.6 °F 39.7 °F 28% 29.37 in 10.0 mi SW 26.5 mph 41.4 mph N/A   Clear
12:55 PM 76.1 °F 38.8 °F 26% 29.37 in 10.0 mi SW 33.4 mph 42.6 mph N/A   Clear
1:15 PM 77.7 °F 39.7 °F 26% 29.37 in 10.0 mi SSW 31.1 mph 38.0 mph N/A   Clear
1:35 PM 77.0 °F 38.7 °F 25% 29.36 in 10.0 mi SW 32.2 mph 39.1 mph N/A   Clear
1:55 PM 78.1 °F 38.8 °F 24% 29.36 in 10.0 mi SW 34.5 mph 39.1 mph N/A   Clear
2:15 PM 77.9 °F 38.5 °F 24% 29.35 in 10.0 mi SSW 28.8 mph 38.0 mph N/A   Clear
2:35 PM 79.0 °F 39.4 °F 24% 29.35 in 10.0 mi SSW 26.5 mph 42.6 mph N/A   Clear
2:55 PM 78.3 °F 38.8 °F 24% 29.34 in 10.0 mi SW 32.2 mph 39.1 mph N/A   Clear
3:15 PM 79.2 °F 39.6 °F 24% 29.34 in 10.0 mi SSW 23.0 mph 40.3 mph N/A   Clear
3:35 PM 79.7 °F 39.4 °F 24% 29.33 in 10.0 mi SSW 33.4 mph 47.2 mph N/A   Clear
3:55 PM 80.1 °F 39.2 °F 23% 29.32 in 10.0 mi SSW 34.5 mph 40.3 mph N/A   Clear
4:15 PM 80.2 °F 38.8 °F 23% 29.32 in 7.0 mi SSW 28.8 mph 39.1 mph N/A   Clear
4:35 PM 80.6 °F 39.4 °F 23% 29.31 in 7.0 mi SSW 27.6 mph 33.4 mph N/A   Scattered Clouds
4:55 PM 80.6 °F 39.4 °F 23% 29.30 in 7.0 mi SSW 31.1 mph 41.4 mph N/A   Scattered Clouds
5:15 PM 80.1 °F 38.8 °F 23% 29.30 in 5.0 mi SW 21.9 mph 34.5 mph N/A   Haze
5:35 PM 80.1 °F 39.0 °F 23% 29.29 in 5.0 mi SSW 20.7 mph 34.5 mph N/A   Haze
5:55 PM 79.7 °F 37.4 °F 22% 29.29 in 5.0 mi SSW 29.9 mph 39.1 mph N/A   Haze
6:15 PM 79.2 °F 37.8 °F 23% 29.29 in 5.0 mi SSW 23.0 mph 35.7 mph N/A   Haze
6:35 PM 78.8 °F 37.6 °F 23% 29.30 in 5.0 mi SSW 18.4 mph 35.7 mph N/A   Haze
6:55 PM 78.1 °F 36.5 °F 22% 29.30 in 5.0 mi SSW 21.9 mph 34.5 mph N/A   Haze
7:15 PM 77.7 °F 36.7 °F 23% 29.31 in 4.0 mi SSW 19.6 mph 31.1 mph N/A   Haze
7:35 PM 77.2 °F 36.5 °F 23% 29.31 in 4.0 mi SSW 19.6 mph 27.6 mph N/A   Haze
7:55 PM 76.6 °F 36.5 °F 23% 29.32 in 4.0 mi SSW 21.9 mph 27.6 mph N/A   Haze
8:15 PM 76.1 °F 36.5 °F 24% 29.34 in 5.0 mi SW 17.3 mph 25.3 mph N/A   Haze
8:55 PM 71.1 °F 41.9 °F 35% 29.37 in 10.0 mi NW 11.5 mph - N/A   Clear
9:15 PM 69.8 °F 42.1 °F 37% 29.39 in 7.0 mi NW 13.8 mph 23.0 mph N/A   Clear
9:35 PM 67.8 °F 42.4 °F 40% 29.41 in 5.0 mi WNW 13.8 mph - N/A   Haze
9:55 PM 66.2 °F 41.9 °F 41% 29.43 in 7.0 mi WNW 13.8 mph 20.7 mph N/A   Scattered Clouds
10:15 PM 64.8 °F 41.9 °F 43% 29.44 in 7.0 mi West 12.7 mph - N/A   Clear
10:35 PM 63.1 °F 41.9 °F 46% 29.44 in 7.0 mi WNW 10.4 mph 17.3 mph N/A   Clear
10:55 PM 62.4 °F 41.5 °F 46% 29.45 in 5.0 mi WNW 13.8 mph - N/A   Haze
11:15 PM 61.5 °F 41.5 °F 48% 29.46 in 5.0 mi WNW 16.1 mph 21.9 mph N/A   Haze
11:35 PM 61.2 °F 41.9 °F 49% 29.46 in 5.0 mi WNW 12.7 mph 23.0 mph N/A   Haze
11:55 PM 60.3 °F 41.9 °F 51% 29.46 in 5.0 mi WNW 18.4 mph 29.9 mph N/A   Haze